Date/Time (UTC),ProbHail,ProbWind,ProbTor,MESH,VIL Density,Flash Rate,Max Flash Density,LJA sigma-level,Max 0-2km AzShear,LLAZ 98th%,MLAZ 98th%,MUCAPE,MLCAPE,CAPE -10C to -30C,MLCIN,SRH 0-1km AGL,EBShear,MeanWind 0-1km AGL,Norm. Sat. Growth Rate,PWAT,WBZ,AvgBeamHgt,size
2019/10/20 22:06,1,1,1,0.0,0.4,0,0.0,0.0,3,3,3,2545,2105,798,3,106,53.6,23.7,1.2,1.7,10.8,11.5,45
2019/10/20 22:08,1,1,1,0.0,0.4,0,0.0,0.0,3,3,3,2544,2103,798,2,106,53.5,23.7,1.2,1.7,10.8,11.5,59
2019/10/20 22:10,1,1,1,0.0,0.4,0,0.0,0.0,4,3,3,2544,2103,798,2,106,53.5,23.7,1.2,1.7,10.8,11.5,59
2019/10/20 22:12,1,1,1,0.0,0.5,0,0.0,0.0,4,3,3,2545,2109,799,3,110,53.9,23.7,1.2,1.7,10.8,11.1,71
2019/10/20 22:14,2,2,1,0.17,0.6,0,0.0,0.0,4,4,4,2530,2090,800,3,114,53.7,23.7,1.2,1.7,10.8,11.1,98
2019/10/20 22:16,2,2,1,0.17,0.8,1,0.05,0.0,4,4,4,2529,2088,800,3,114,53.7,23.7,1.2,1.7,10.8,11.1,111
2019/10/20 22:18,2,2,1,0.17,0.8,3,0.18,0.0,4,4,4,2529,2088,800,3,114,53.7,23.7,1.2,1.7,10.8,11.1,111
2019/10/20 22:20,2,1,1,0.15,1.1,3,0.18,0.0,4,4,3,2523,2088,804,3,119,53.9,23.8,1.2,1.7,10.8,11.0,52
2019/10/20 22:22,2,1,1,0.15,1.1,3,0.18,0.0,4,4,4,2525,2095,805,3,119,54.0,23.7,2.1,1.7,10.8,10.9,45
2019/10/20 22:24,2,1,1,0.09,1.3,3,0.18,0.0,4,3,4,2524,2098,808,4,122,54.2,23.8,2.1,1.7,10.8,10.9,41
2019/10/20 22:26,2,1,1,0.09,1.3,2,0.18,0.0,4,3,4,2524,2098,808,4,122,54.2,23.8,2.1,1.7,10.8,10.9,41
2019/10/20 22:28,2,3,1,0.11,1.3,2,0.18,0.0,4,4,4,2527,2121,815,4,128,54.8,23.8,2.1,1.7,10.8,10.6,71
2019/10/20 22:30,3,5,1,0.26,2.2,2,0.18,0.0,4,4,4,2526,2126,817,4,130,54.8,23.8,2.1,1.7,10.8,10.5,95
2019/10/20 22:32,3,5,1,0.26,2.2,1,0.18,0.0,4,4,4,2537,2175,825,4,137,55.5,23.8,2.1,1.7,10.8,10.2,110
2019/10/20 22:34,3,5,1,0.27,2.2,1,0.18,0.0,5,4,4,2541,2194,827,4,139,55.6,23.8,2.1,1.7,10.8,10.0,207
2019/10/20 22:36,3,5,1,0.27,1.4,1,0.18,0.0,4,4,4,2541,2194,827,4,139,55.6,23.8,2.1,1.7,10.8,10.0,207
2019/10/20 22:38,8,8,1,0.39,1.5,9,0.33,0.0,4,4,4,2537,2211,828,4,142,55.7,23.9,2.1,1.7,10.8,10.0,201
2019/10/20 22:40,26,54,1,0.59,2.5,26,0.92,5.3,4,4,4,2542,2236,829,4,145,55.8,23.9,2.1,1.7,10.8,9.8,77
2019/10/20 22:42,32,57,1,0.59,2.5,32,0.92,0.9,4,4,4,2546,2244,828,4,145,55.9,23.8,2.1,1.7,10.8,9.8,209
2019/10/20 22:44,32,61,2,0.59,2.5,32,0.92,0.0,5,4,5,2563,2308,829,3,149,56.2,23.8,2.1,1.7,10.8,9.4,205
2019/10/20 22:46,33,54,2,0.59,2.2,32,0.92,0.0,5,4,5,2568,2321,829,3,150,56.3,23.8,2.2,1.7,10.8,9.4,203
2019/10/20 22:48,27,64,5,0.46,2.2,36,0.92,1.9,7,5,6,2568,2321,829,3,150,56.3,23.8,2.2,1.7,10.8,9.4,203
2019/10/20 22:50,25,60,7,0.44,1.7,36,0.96,0.0,8,6,5,2570,2334,830,3,150,56.3,23.8,2.2,1.7,10.8,9.3,202
2019/10/20 22:52,42,74,7,0.51,1.9,55,0.99,2.2,8,6,6,2583,2382,832,2,150,56.5,23.7,2.2,1.7,10.8,9.0,201
2019/10/20 22:54,49,85,11,0.51,2.5,55,0.99,0.0,8,6,5,2675,2395,875,3,163,56.7,27.5,2.2,1.6,11.4,8.8,227
2019/10/20 22:56,49,85,11,0.51,2.5,55,0.99,0.0,7,6,6,2675,2395,875,3,163,56.7,27.5,2.2,1.6,11.4,8.8,227
2019/10/20 22:58,60,92,11,0.65,2.5,55,0.99,0.2,7,6,6,2663,2401,874,3,162,56.7,27.5,2.2,1.6,11.2,8.7,211
2019/10/20 23:00,72,88,10,0.8,2.5,37,0.99,0.0,7,6,6,2651,2400,873,3,163,56.6,27.5,2.2,1.6,11.2,8.7,210
2019/10/20 23:02,78,94,27,0.8,2.2,53,1.07,1.8,11,6,7,2681,2435,875,3,159,56.7,27.5,2.2,1.6,11.0,8.2,281
2019/10/20 23:04,89,95,37,1.06,2.8,53,1.07,0.0,11,7,9,2683,2439,875,4,159,56.7,27.5,2.2,1.6,11.0,8.1,208
2019/10/20 23:06,90,95,37,1.14,3.3,53,1.07,0.0,8,7,7,2683,2440,875,3,159,56.7,27.5,2.2,1.6,10.9,8.1,222
2019/10/20 23:08,96,95,37,1.48,3.7,53,1.07,1.2,8,7,6,2698,2453,875,3,158,56.6,27.5,2.2,1.6,10.9,7.8,297
2019/10/20 23:10,95,95,27,1.48,3.7,44,1.07,0.2,11,7,6,2694,2452,874,3,158,56.6,27.5,2.2,1.6,10.9,7.8,312
2019/10/20 23:12,95,95,42,1.48,3.8,48,1.07,0.2,10,8,9,2696,2452,874,3,158,56.6,27.5,2.2,1.6,10.9,7.8,315
2019/10/20 23:14,97,95,50,1.78,4.4,55,1.07,0.6,13,8,8,2688,2451,873,3,158,56.5,27.5,2.2,1.6,10.8,7.7,402
2019/10/20 23:16,97,95,59,1.78,4.4,57,1.07,0.2,13,8,7,2669,2453,871,3,158,56.2,27.5,2.2,1.6,10.8,7.4,414
2019/10/20 23:18,97,95,56,1.78,4.4,57,1.07,0.0,13,8,7,2668,2453,871,3,158,56.2,27.5,2.2,1.6,10.8,7.4,413
2019/10/20 23:20,97,95,50,1.62,3.7,57,1.07,0.0,14,8,7,2662,2450,869,3,158,56.0,27.4,2.2,1.6,10.8,7.2,397
2019/10/20 23:22,97,95,66,1.62,3.7,57,1.07,0.5,12,9,9,2656,2447,868,3,157,55.9,27.4,2.2,1.6,10.8,7.1,406
2019/10/20 23:24,96,95,60,1.62,3.7,55,1.07,0.0,12,9,9,2674,2446,868,3,157,55.9,27.4,2.2,1.6,10.8,7.0,428
2019/10/20 23:26,96,95,66,1.26,3.5,83,1.07,8.1,12,9,10,2642,2436,863,4,156,55.5,27.3,2.2,1.6,10.8,6.7,393
2019/10/20 23:28,96,95,55,1.26,3.5,83,1.07,0.0,11,7,10,2653,2434,863,4,155,55.5,27.3,2.2,1.6,10.8,6.7,423
2019/10/20 23:30,96,95,52,1.26,3.5,83,1.07,0.0,14,7,9,2655,2431,862,4,155,55.4,27.3,2.2,1.6,10.8,6.6,484
2019/10/20 23:32,96,95,62,1.26,3.5,83,1.07,0.2,15,8,10,2634,2420,860,4,154,55.1,27.2,2.2,1.6,10.8,6.5,419
2019/10/20 23:34,92,95,62,1.25,3.7,51,0.95,0.2,15,8,10,2633,2408,857,4,153,54.8,27.2,2.2,1.6,10.8,6.3,454
2019/10/20 23:36,88,95,62,1.07,3.7,48,0.95,0.0,9,8,9,2690,2400,860,4,147,54.9,27.1,2.2,1.6,10.8,6.2,247
2019/10/20 23:38,93,95,62,1.29,3.7,48,0.95,0.1,9,8,9,2676,2391,859,5,147,54.8,27.1,2.2,1.6,10.8,6.1,255
2019/10/20 23:40,93,95,35,1.29,3.6,49,0.95,1.7,9,8,9,2663,2384,857,5,147,54.7,27.0,2.2,1.6,10.8,6.0,270
2019/10/20 23:42,92,95,30,1.29,3.6,49,0.95,0.0,9,8,6,2650,2348,854,5,145,54.1,26.9,2.2,1.6,10.8,5.8,233
2019/10/20 23:44,92,95,21,1.29,3.7,49,0.95,0.0,7,7,6,2647,2343,854,5,144,54.1,26.8,2.2,1.6,10.8,5.7,217
2019/10/20 23:46,84,97,10,1.0,3.7,49,0.95,0.5,7,7,6,2647,2339,854,5,144,54.0,26.8,2.2,1.6,10.8,5.7,209
2019/10/20 23:48,86,97,9,1.06,3.7,37,0.95,0.3,7,7,6,2605,2294,853,5,142,53.3,26.6,2.2,1.5,10.8,5.4,231
2019/10/20 23:50,86,97,13,1.06,3.7,37,0.95,0.0,10,7,6,2606,2295,853,5,142,53.4,26.6,2.2,1.5,10.8,5.4,236
2019/10/20 23:52,94,95,15,1.42,3.2,37,0.95,0.1,10,7,7,2586,2263,852,5,140,53.0,26.5,2.2,1.5,10.8,5.2,274
2019/10/20 23:54,94,95,15,1.42,3.2,37,0.95,0.0,10,7,7,2586,2263,852,5,140,53.0,26.5,2.2,1.5,10.8,5.2,274
2019/10/20 23:56,91,95,25,1.42,3.3,36,0.95,0.1,10,7,7,2572,2132,846,6,188,54.1,30.5,2.2,1.6,11.6,5.0,291
2019/10/20 23:58,91,95,19,1.42,3.3,37,0.68,2.2,10,7,6,2545,2113,840,6,187,53.7,30.5,Storm,1.6,11.6,4.8,324
2019/10/21 00:00,90,95,17,1.33,3.3,41,0.68,1.0,9,6,6,2546,2112,840,6,187,53.7,30.5,Storm,1.6,11.6,4.8,335
2019/10/21 00:02,90,95,18,1.33,3.1,45,0.68,0.7,11,7,6,2522,2096,836,7,185,53.4,30.4,Storm,1.6,11.5,4.6,330
2019/10/21 00:04,90,95,32,1.32,3.1,45,0.68,0.0,11,7,9,2509,2091,834,7,184,53.3,30.3,Storm,1.6,11.5,4.5,348
2019/10/21 00:06,83,95,32,1.09,3.2,50,0.68,2.5,11,7,9,2502,2090,833,7,185,53.3,30.3,Storm,1.6,11.5,4.5,346
2019/10/21 00:08,86,95,53,1.08,3.2,59,0.68,1.4,14,9,8,2473,2087,829,8,183,53.2,30.2,Storm,1.6,11.5,4.3,338
2019/10/21 00:10,90,95,53,1.21,3.4,59,0.68,0.0,14,9,8,2467,2087,828,8,183,53.3,30.2,Storm,1.6,11.5,4.2,373
2019/10/21 00:12,90,95,47,1.24,3.4,59,0.68,0.0,14,9,8,2447,2087,826,8,183,53.2,30.1,Storm,1.6,11.4,4.1,343
2019/10/21 00:14,90,95,47,1.24,3.4,59,0.68,1.0,14,9,8,2424,2092,824,8,183,53.2,30.0,Storm,1.6,11.4,3.9,362
2019/10/21 00:16,92,95,47,1.38,3.4,47,0.68,0.0,11,9,8,2425,2092,824,8,183,53.2,30.0,Storm,1.6,11.4,3.9,351
2019/10/21 00:18,94,95,36,1.52,3.2,47,0.68,0.1,11,9,8,2404,2097,822,8,182,53.4,29.9,Storm,1.6,11.3,3.7,369
2019/10/21 00:20,94,95,65,1.52,3.2,47,0.68,0.0,18,10,8,2392,2102,820,8,181,53.7,29.8,Storm,1.6,11.3,3.5,390
2019/10/21 00:22,97,95,64,1.8,3.2,63,0.64,3.6,18,10,7,2389,2107,819,8,181,53.9,29.8,Storm,1.6,11.2,3.5,403
2019/10/21 00:24,97,95,63,1.8,3.2,63,0.57,0.0,18,10,7,2389,2107,819,8,181,53.9,29.8,Storm,1.6,11.2,3.5,403
2019/10/21 00:26,97,95,58,1.85,3.2,63,0.57,0.0,18,10,7,2377,2123,817,8,180,54.2,29.6,Storm,1.6,11.1,3.3,428
2019/10/21 00:28,97,95,71,1.85,3.2,63,0.57,0.2,18,10,9,2380,2134,816,7,180,54.4,29.5,Storm,1.6,11.0,3.1,470
2019/10/21 00:30,96,95,66,1.85,3.3,41,0.57,0.0,17,9,9,2380,2138,816,7,179,54.4,29.5,Storm,1.6,11.0,3.1,468
2019/10/21 00:32,96,95,80,1.79,3.4,41,0.57,0.0,18,12,9,2383,2161,814,6,177,54.7,29.3,Storm,1.6,11.0,2.9,376
2019/10/21 00:34,96,95,81,1.79,3.4,48,0.57,1.5,18,12,9,2382,2171,814,6,178,54.8,29.2,Storm,1.6,10.9,2.8,426
2019/10/21 00:36,96,95,81,1.79,3.4,48,0.57,0.0,18,12,8,2382,2174,814,6,177,54.8,29.2,Storm,1.6,10.9,2.8,430
2019/10/21 00:38,97,95,77,1.75,3.3,58,0.6,2.1,18,11,8,2382,2174,814,6,177,54.8,29.2,Storm,1.6,10.9,2.8,430
2019/10/21 00:40,97,95,71,1.75,3.3,58,0.6,0.0,18,11,9,2381,2193,812,5,178,54.8,29.0,Storm,1.6,10.9,2.6,371
2019/10/21 00:42,97,95,81,1.75,3.5,58,0.6,0.0,18,11,11,2381,2194,812,5,178,54.8,29.0,Storm,1.6,10.9,2.6,378
2019/10/21 00:44,96,95,67,1.73,3.5,58,0.6,0.1,11,10,11,2386,2202,811,4,177,54.9,28.9,Storm,1.6,10.9,2.5,347
2019/10/21 00:46,94,95,67,1.73,3.5,34,0.6,0.0,11,10,11,2390,2203,812,4,177,54.9,28.8,Storm,1.6,10.9,2.5,379
2019/10/21 00:48,96,95,61,1.73,3.5,46,0.6,1.7,11,10,9,2397,2217,812,4,177,54.9,28.7,Storm,1.6,10.9,2.4,378
2019/10/21 00:50,96,95,55,1.74,3.5,46,0.6,0.0,12,9,9,2399,2219,813,4,177,54.9,28.6,Storm,1.6,10.9,2.3,380
2019/10/21 00:52,96,95,44,1.74,3.9,46,0.6,0.5,12,9,9,2401,2223,813,4,177,54.9,28.6,Storm,1.6,10.9,2.2,366
2019/10/21 00:54,96,95,47,1.74,3.9,46,0.6,0.2,13,9,9,2403,2232,814,4,177,54.9,28.4,Storm,1.6,10.9,2.1,373
2019/10/21 00:56,95,95,51,1.69,3.9,41,0.6,0.0,13,9,10,2403,2238,815,4,177,54.9,28.4,Storm,1.6,10.9,2.0,416
2019/10/21 00:58,92,95,68,1.44,3.5,41,0.6,0.0,17,10,10,2403,2241,815,4,176,54.9,28.4,Storm,1.6,10.9,2.0,414
2019/10/21 01:00,92,95,80,1.36,3.5,41,0.6,0.0,23,12,10,2403,2241,815,4,176,54.9,28.4,Storm,1.6,10.9,2.0,414
2019/10/21 01:02,94,95,86,1.36,3.8,57,0.6,6.1,23,12,12,2404,2251,818,5,176,54.9,28.2,Storm,1.6,10.9,1.8,435
2019/10/21 01:04,95,95,87,1.5,3.9,57,0.6,0.0,23,12,13,2405,2259,820,6,176,54.9,28.1,Storm,1.6,10.9,1.7,424
2019/10/21 01:06,95,95,87,1.5,3.9,57,0.6,0.0,23,12,13,2406,2262,822,6,176,54.8,28.0,Storm,1.6,10.9,1.6,439
2019/10/21 01:08,95,95,87,1.5,3.9,57,0.6,0.0,23,12,11,2406,2262,822,6,176,54.8,28.0,Storm,1.6,10.9,1.6,438
2019/10/21 01:10,95,95,84,1.46,3.7,62,0.89,2.1,13,11,11,2408,2263,824,6,176,54.8,27.9,Storm,1.6,10.9,1.5,447
2019/10/21 01:12,98,95,77,2.54,3.7,62,0.89,0.0,13,11,12,2408,2264,825,6,176,54.8,27.7,0,1.6,10.9,1.3,394
2019/10/21 01:14,98,95,77,2.54,3.2,62,0.89,0.3,14,11,12,2408,2264,826,6,176,54.8,27.7,0,1.6,10.9,1.3,401
2019/10/21 01:16,98,95,77,2.54,3.2,62,0.89,0.0,14,11,11,2408,2264,828,7,176,54.8,27.5,0,1.6,10.9,1.2,395
2019/10/21 01:18,97,95,82,2.54,3.3,45,0.89,0.0,15,12,11,2407,2264,829,7,175,54.7,27.4,0,1.6,10.9,1.1,336
2019/10/21 01:20,97,95,84,1.91,3.3,57,0.89,1.3,15,12,11,2406,2264,829,7,175,54.7,27.3,0,1.6,10.9,1.0,337
2019/10/21 01:22,97,95,87,1.91,3.3,57,0.89,0.0,15,12,10,2402,2263,829,6,175,54.6,27.2,0,1.6,10.9,0.9,341
2019/10/21 01:24,94,95,86,1.45,3.2,57,0.89,0.0,16,11,9,2403,2263,829,6,175,54.6,27.2,0,1.6,10.9,1.0,354
2019/10/21 01:26,94,95,75,1.45,2.8,57,0.89,1.7,18,10,10,2396,2261,832,6,174,54.5,26.9,0,1.6,10.9,0.8,312
2019/10/21 01:28,94,95,75,1.45,2.8,59,0.89,0.2,18,10,9,2389,2260,834,6,174,54.4,26.8,0,1.6,10.9,0.7,333
2019/10/21 01:30,83,95,74,1.32,2.8,59,0.89,0.0,16,10,10,2255,2009,823,9,195,48.5,30.6,0,1.8,11.8,0.6,336
2019/10/21 01:32,81,95,68,1.28,2.4,59,0.89,0.9,13,9,10,2256,2005,818,9,195,48.3,30.6,0,1.8,11.8,0.6,327
2019/10/21 01:34,81,95,66,1.29,2.8,59,0.89,0.6,12,9,10,2245,1988,807,9,194,47.9,30.4,0,1.8,11.7,0.5,335
2019/10/21 01:36,80,95,71,1.29,2.8,54,0.89,0.0,17,9,9,2242,1985,802,9,194,47.7,30.3,0,1.8,11.7,0.5,329
2019/10/21 01:38,77,95,71,1.29,2.8,54,0.89,0.3,17,9,9,2236,1979,799,10,194,47.5,30.3,0,1.8,11.6,0.4,328
2019/10/21 01:40,74,95,67,1.21,2.5,54,0.89,0.4,17,10,8,2212,1961,788,10,193,46.8,30.1,0,1.8,11.5,0.3,292
2019/10/21 01:42,70,94,67,1.21,2.5,41,0.85,0.0,17,10,8,2192,1950,778,10,193,46.4,29.9,0,1.7,11.4,0.2,302
2019/10/21 01:44,78,95,75,1.39,3.0,41,0.85,0.1,17,10,11,2182,1944,773,10,193,46.1,29.8,0,1.7,11.3,0.2,306
2019/10/21 01:46,78,95,62,1.39,3.0,41,0.85,0.0,11,9,11,2167,1938,766,10,193,45.8,29.7,0,1.7,11.3,0.1,301
2019/10/21 01:48,67,97,56,1.39,3.0,29,0.85,0.0,13,9,7,2154,1933,758,10,193,45.6,29.6,0,1.7,11.2,0.1,296
2019/10/21 01:50,48,95,56,1.1,2.7,29,0.85,1.2,13,9,6,2155,1930,752,10,194,45.6,29.4,0,1.7,11.1,0.1,298
2019/10/21 01:52,23,78,35,0.87,2.5,23,0.85,0.0,13,9,6,2155,1929,748,10,194,45.6,29.4,0,1.7,11.1,0.1,285
2019/10/21 01:54,20,75,22,0.8,2.5,23,0.85,0.0,11,8,6,2145,1924,742,10,194,45.5,29.2,0,1.7,11.1,0.1,269
2019/10/21 01:56,8,66,15,0.62,2.1,23,0.85,0.7,9,8,6,1991,1815,726,14,200,44.7,30.4,0,1.7,12.0,0.1,256
2019/10/21 01:58,3,63,11,0.47,2.1,18,0.85,0.2,9,7,4,1994,1815,724,14,200,44.7,30.3,0,1.7,12.0,0.1,241
2019/10/21 02:00,3,59,5,0.47,2.0,16,0.56,0.0,7,6,4,1998,1808,723,14,200,44.6,30.2,0,1.7,12.0,0.1,257
2019/10/21 02:02,6,58,5,0.65,2.5,16,0.56,0.0,8,6,3,2005,1805,721,15,200,44.5,30.1,0,1.7,12.0,0.2,249
2019/10/21 02:04,6,63,5,0.65,2.5,16,0.56,0.0,8,6,5,2011,1808,721,15,200,44.6,30.1,0,1.7,12.0,0.2,223
2019/10/21 02:06,4,63,7,0.65,2.7,12,0.56,0.0,8,6,7,2020,1805,720,15,200,44.5,30.0,0,1.7,12.0,0.2,251
2019/10/21 02:08,4,65,8,0.61,2.7,8,0.56,0.0,8,6,8,2024,1794,720,15,199,44.3,29.9,0,1.7,12.0,0.3,218
2019/10/21 02:10,4,65,12,0.61,2.7,9,0.56,0.0,8,6,9,2029,1791,719,15,199,44.3,29.9,0,1.7,12.0,0.3,213
2019/10/21 02:12,4,59,7,0.61,2.3,11,0.48,1.2,6,5,9,2036,1790,719,14,199,44.2,29.8,0,1.7,12.0,0.4,223
2019/10/21 02:14,4,59,7,0.63,2.3,11,0.48,0.0,6,5,9,2040,1789,723,14,199,44.1,29.7,0,1.8,12.0,0.5,221
2019/10/21 02:16,4,58,7,0.65,2.3,11,0.48,0.0,6,5,9,2048,1788,729,14,199,44.0,29.6,0,1.8,12.0,0.5,205
2019/10/21 02:18,8,63,7,0.83,2.6,11,0.48,0.0,6,5,9,2048,1789,732,14,199,44.0,29.6,0,1.8,12.0,0.6,222
2019/10/21 02:20,7,63,7,0.83,2.6,8,0.48,0.0,6,5,9,2056,1792,746,14,199,43.9,29.4,0,1.8,12.0,0.7,214
2019/10/21 02:22,10,70,11,0.83,2.6,15,0.37,2.7,9,6,9,2058,1792,750,14,199,43.9,29.4,0,1.8,12.0,0.7,200
2019/10/21 02:24,8,64,9,0.78,2.4,15,0.24,0.0,9,6,8,2059,1794,753,13,199,43.9,29.4,0,1.8,12.0,0.7,207
2019/10/21 02:26,7,64,9,0.74,2.4,15,0.24,0.0,9,6,8,2067,1802,765,13,199,43.8,29.2,0,1.8,12.0,0.9,210
2019/10/21 02:28,7,64,8,0.74,2.5,15,0.24,0.0,7,6,8,2069,1804,767,13,199,43.9,29.2,0,1.8,12.0,0.9,200
2019/10/21 02:30,5,63,6,0.7,2.5,10,0.24,0.0,7,6,7,2069,1811,777,13,199,43.8,29.1,0,1.8,12.0,1.0,213
2019/10/21 02:32,4,63,5,0.63,2.5,7,0.24,0.0,7,6,7,2066,1816,785,12,198,43.7,29.0,0,1.8,12.0,1.0,217
2019/10/21 02:34,2,47,4,0.47,2.3,7,0.24,0.0,7,5,8,2063,1818,791,12,198,43.7,28.9,0,1.8,12.0,1.1,304
2019/10/21 02:36,2,37,4,0.44,2.1,5,0.24,0.0,7,5,7,2060,1818,795,12,197,43.6,28.9,0,1.8,12.0,1.2,304
2019/10/21 02:38,1,42,4,0.32,2.0,6,0.24,0.0,6,5,7,2056,1826,800,11,196,43.6,28.7,0,1.8,11.9,1.3,296
2019/10/21 02:40,2,38,4,0.39,2.0,6,0.24,0.0,8,5,6,2049,1826,804,11,195,43.4,28.7,0,1.7,11.9,1.4,277
2019/10/21 02:42,2,35,4,0.39,1.8,6,0.24,0.0,8,5,6,2043,1827,807,11,194,43.4,28.6,0,1.7,11.9,1.5,268
2019/10/21 02:44,2,35,4,0.39,1.8,6,0.24,0.0,9,5,6,2038,1829,811,11,193,43.3,28.6,0,1.7,11.9,1.6,261
2019/10/21 02:46,1,28,4,0.19,1.4,2,0.24,0.0,9,5,6,2036,1833,814,11,192,43.4,28.4,0,1.7,11.9,1.7,240
2019/10/21 02:48,1,28,4,0.19,1.4,1,0.24,0.0,9,5,6,2037,1833,814,11,192,43.4,28.4,0,1.7,11.9,1.7,231
2019/10/21 02:50,1,16,2,0.2,1.3,1,0.24,0.0,6,4,6,2030,1835,817,11,190,43.4,28.3,0,1.7,11.8,1.9,209
2019/10/21 02:52,1,16,2,0.2,1.4,2,0.24,0.0,4,4,5,2031,1836,817,11,190,43.5,28.2,0,1.7,11.8,1.9,236
2019/10/21 02:54,1,25,2,0.2,1.4,2,0.17,0.0,4,4,5,2031,1774,800,23,217,43.1,32.3,0,1.7,12.0,2.1,248
2019/10/21 02:56,1,25,2,0.17,1.5,2,0.17,0.0,4,4,6,2025,1777,800,23,216,43.1,32.2,0,1.7,12.0,2.2,214
2019/10/21 02:58,1,12,2,0.17,1.5,2,0.17,0.0,4,4,5,2010,1782,799,22,214,43.1,32.0,0,1.7,11.9,2.4,121
2019/10/21 03:00,1,12,2,0.16,1.5,1,0.12,0.0,4,4,4,2012,1779,799,22,215,43.1,32.0,0,1.7,11.9,2.4,200
2019/10/21 03:02,1,2,2,0.13,1.3,1,0.12,0.0,3,3,4,1996,1781,792,22,213,43.0,31.8,0,1.7,11.9,2.6,104
2019/10/21 03:04,1,2,2,0.13,1.3,1,0.12,0.0,3,3,2,1986,1778,787,21,211,42.9,31.7,0,1.7,11.9,2.7,63
2019/10/21 03:06,1,2,2,0.13,1.3,1,0.08,0.0,3,3,3,1984,1777,786,21,211,42.8,31.6,0,1.7,11.9,2.7,75
2019/10/21 03:08,1,2,2,0.1,1.1,1,0.08,0.0,3,3,3,1969,1773,780,21,209,42.9,31.5,0,1.7,11.9,2.9,112
2019/10/21 03:10,1,2,2,0.16,1.1,1,0.06,0.0,3,3,3,1950,1766,775,20,206,42.8,31.3,0,1.7,11.9,3.1,85
2019/10/21 03:12,1,2,2,0.16,1.1,1,0.06,0.0,3,3,2,1949,1765,774,20,206,42.8,31.3,0,1.7,11.9,3.2,95
2019/10/21 03:14,1,1,2,0.16,1.1,0,0.06,0.0,3,2,2,1949,1765,774,20,206,42.8,31.3,0,1.7,11.9,3.2,95
2019/10/21 03:16,1,1,2,0.13,0.9,0,0.06,0.0,3,2,2,1928,1758,770,19,203,43.4,31.0,0,1.8,11.9,3.5,47
2019/10/21 03:18,1,1,2,0.13,0.9,0,0.06,0.0,3,2,2,1926,1756,769,19,202,43.4,31.0,0,1.8,11.9,3.6,46
